Flag for Switzerland Weather past 2 weeks in Winterthur, Switzerland

Now
41 °F

Passing clouds.


Feels Like: 34 °F
Forecast: 29 / 50 °F
Wind: 12 mph from Southwest

Location: Zurich-Kloten

Current Time: Apr 2, 2015 at 2:50:22 AM

Latest Report: Apr 2, 2015 at 1:50 AM


Visibility: N/A

Pressure: 30.24 "Hg

Humidity: 70%

Dew point: 32 °F

Location of WinterthurLocation

Historic Weather in Winterthur — Graph

°F

Winterthur temperature yesterday

Maximum temperature yesterday: 48 °F (at 12:20 AM)
Minimum temperature yesterday: 37 °F (at 5:20 AM)
Average temperature yesterday: 42 °F

Past Weeks' High & Low Weather Summary

 TemperatureHumidityPressure
High64 °F (Mar 18, 3:20 PM)100% (Mar 18, 6:20 AM)30.30 "Hg (Mar 18, 6:20 AM)
Low28 °F (Mar 24, 6:50 AM)32% (Mar 18, 4:20 PM)29.59 "Hg (Mar 25, 12:20 PM)
Average46 °F74%29.99 "Hg
* Reported Mar 18 12:20 AM — Apr 2 1:20 AM, Winterthur, Weather by CustomWeather, © 2015

Note: Actual official high and low records may vary slightly from our data, if they occured in-between our weather recording intervals... More about our weather records

Advertising

Winterthur weather history for previous 24 hours

 ConditionsComfort  
Time TempWeatherWind HumidityBarometerVisibility
1:20 AM
Thu, Apr 2
41 °FPassing clouds.10 mph66%30.24 "HgN/A
12:50 AM41 °FPassing clouds.10 mph70%30.27 "HgN/A
12:20 AM41 °FPassing clouds.12 mph66%30.27 "HgN/A
11:50 PM
Wed, Apr 1
41 °FPassing clouds.10 mph66%30.27 "HgN/A
11:20 PM41 °FPassing clouds.9 mph61%30.27 "HgN/A
10:50 PM41 °FScattered showers. Passing clouds.12 mph61%30.27 "HgN/A
10:20 PM43 °FPassing clouds.9 mph57%30.30 "HgN/A
9:50 PM43 °FPassing clouds.12 mph57%30.27 "HgN/A
9:20 PM43 °FPassing clouds.9 mph61%30.27 "HgN/A
8:50 PM43 °FPartly sunny.7 mph57%30.27 "HgN/A
8:20 PM43 °FPartly sunny.9 mph57%30.27 "HgN/A
7:50 PM43 °FScattered showers. Partly sunny.16 mph57%30.27 "HgN/A
7:20 PM43 °FScattered showers. Partly sunny.16 mph57%30.24 "HgN/A
6:50 PM45 °FScattered showers. Partly sunny.12 mph53%30.24 "HgN/A
6:20 PM45 °FPartly sunny.14 mph53%30.24 "HgN/A
5:50 PM45 °FScattered showers. Partly sunny.14 mph57%30.24 "HgN/A
5:20 PM45 °FScattered clouds.18 mph57%30.21 "HgN/A
4:50 PM45 °FScattered showers. Partly sunny.12 mph57%30.21 "HgN/A
4:20 PM43 °FScattered showers. Partly sunny.15 mph71%30.21 "HgN/A
3:50 PM43 °FSprinkles. Partly sunny.21 mph66%30.21 "HgN/A
3:20 PM45 °FScattered clouds.20 mph57%30.21 "HgN/A
2:50 PM41 °FScattered showers. Scattered clouds.18 mph70%30.21 "HgN/A
2:20 PM41 °FPartly sunny.15 mph81%30.21 "HgN/A
1:50 PM43 °FScattered showers. Scattered clouds.17 mph66%30.21 "HgN/A
1:20 PM43 °FScattered clouds.20 mph76%30.21 "HgN/A
12:50 PM39 °FBroken clouds.16 mph81%30.21 "HgN/A
12:20 PM37 °FRain showers. Partly sunny.13 mph87%30.21 "Hg4 mi
11:50 AM39 °FSprinkles. Partly sunny.14 mph87%30.21 "Hg3 mi
11:20 AM43 °FScattered showers. Broken clouds.16 mph71%30.18 "HgN/A
10:50 AM41 °FScattered showers. Broken clouds.15 mph70%30.18 "HgN/A
10:20 AM41 °FScattered showers. Broken clouds.14 mph70%30.18 "HgN/A
9:50 AM41 °FScattered showers. Broken clouds.16 mph70%30.15 "HgN/A
9:20 AM43 °FBroken clouds.18 mph61%30.15 "HgN/A
8:50 AM41 °FScattered clouds.20 mph70%30.12 "HgN/A
8:20 AM41 °FScattered showers. Scattered clouds.17 mph66%30.12 "HgN/A
7:50 AM39 °FPassing clouds.15 mph75%30.12 "HgN/A
7:20 AM39 °FScattered showers. Partly cloudy.20 mph81%30.12 "HgN/A
6:50 AM41 °FSprinkles. Partly cloudy.22 mph76%30.09 "Hg6 mi
6:20 AM41 °FPassing clouds.7 mph76%30.09 "HgN/A
5:50 AM39 °FPassing clouds.7 mph81%30.09 "HgN/A
5:20 AM37 °FSprinkles. Passing clouds.15 mph87%30.09 "HgN/A
4:50 AM45 °FPassing clouds.14 mph61%30.07 "HgN/A
4:20 AM43 °FPassing clouds.14 mph71%30.07 "HgN/A
3:50 AM43 °FPartly cloudy.14 mph71%30.07 "HgN/A
3:20 AM43 °FPartly cloudy.17 mph71%30.07 "HgN/A
2:50 AM41 °FSprinkles. Passing clouds.21 mph81%30.07 "HgN/A
Weather by CustomWeather, © 2015

See weather overviewHow to use our weather pages